Location: *
(45.4590°N, 16.3650°E)
Time: 18:26:14
(UTC+00:00)

YAOGAN 1 - Pass Details

Date: 17 January 2020
Orbit: 619 x 621 km, 98.0° (Epoch: 25 February)

Event Time Altitude Azimuth Distance (km) Brightness Sun altitude
Rises 17:12:08 0° 160° (SSE) 2,885 5.9 -15.9°
Reaches altitude 10° 17:14:18 10° 159° (SSE) 1,984 5.1 -16.3°
Maximum altitude 17:18:36 74° 75° (ENE) 651 2.4 -17.0°
Drops below altitude 10° 17:22:57 10° 350° (N) 1,999 5.1 -17.8°
Sets 17:25:09 0° 349° (N) 2,910 6.0 -18.1°
